Weather History for South Pass, WY

Change the Weather History Date:

Friday, October 18, 2013

  Actual Average (KLND) Record (KLND)
Temperature  
Mean Temperature 27 °F 45 °F  
Max Temperature 35 °F 58 °F 80 °F (1958)
Min Temperature 19 °F 32 °F 9 °F (1917)
Degree Days  
Heating Degree Days 38 20  
Month to date heating degree days 305  
Since 1 July heating degree days 564  
Cooling Degree Days 0 0  
Month to date cooling degree days 0  
Year to date cooling degree days 472  
Moisture  
Dew Point 21 °F    
Average Humidity 77    
Maximum Humidity 100    
Minimum Humidity 41    
Precipitation  
Precipitation 0.02 in 0.04 in 0.74 in (1932)
Month to date precipitation 0.81  
Year to date precipitation 10.74  
Snow  
Snow 0.00 in 0.30 in - ()
Month to date snowfall 5.1  
Since 1 July snowfall 7.8  
Since 1 September snowfall 7.8  
Snow Depth -    
Sea Level Pressure  
Sea Level Pressure 30.10 in    
Wind  
Wind Speed 6 mph (WSW)    
Max Wind Speed 14 mph    
Max Gust Speed 21 mph    
Visibility 8 miles    
Events Fog    
T = Trace of Precipitation, MM = Missing Value Source: NWS Daily Summary

Daily Weather History Graph

Daily Weather History Graph

Search for Another Location

Airport:

Trip Planner

Search our weather history database for the weather conditions in past years. The results will help you decide how hot, cold, wet, or windy it might be!

Date:

Astronomy

Oct. 18, 2013 Rise Set
Actual Time 7:32 AM MDT 6:27 PM MDT
Civil Twilight 7:03 AM MDT 6:56 PM MDT
Nautical Twilight 6:30 AM MDT 7:28 PM MDT
Astronomical Twilight 5:58 AM MDT 8:01 PM MDT
Moon 6:19 PM MDT (10/18) 7:10 AM MDT (10/18)
Length of Visible Light 11h 52m
Length of Day
10h 55m
Full, 100% of the Moon is Illuminated
Oct 18
Full
Oct 18
Full
Oct 26
Last Quarter
Nov 3
New
Nov 9
First Quarter

Hourly Weather History & Observations

Time (MDT) Temp. Windchill Dew Point Humidity Pressure Visibility Wind Dir Wind Speed Gust Speed Precip Events Conditions
12:15 AM 23.0 °F 11.1 °F 23.0 °F 100% - 5.0 mi North 12.7 mph - N/A   Overcast
12:35 AM 23.0 °F 12.4 °F 23.0 °F 100% - 4.0 mi North 10.4 mph - N/A   Overcast
12:55 AM 23.0 °F 12.4 °F 23.0 °F 100% - 1.8 mi North 10.4 mph - N/A   Overcast
1:15 AM 23.0 °F 14.7 °F 23.0 °F 100% - 10.0 mi North 6.9 mph - N/A   Overcast
1:35 AM 24.8 °F 20.5 °F 23.0 °F 93% - 10.0 mi North 3.5 mph - N/A   Overcast
1:55 AM 23.0 °F 14.7 °F 23.0 °F 100% - 10.0 mi NNE 6.9 mph - N/A   Overcast
2:15 AM 23.0 °F 15.8 °F 23.0 °F 100% - 10.0 mi NNE 5.8 mph - N/A   Overcast
2:35 AM 23.0 °F 17.0 °F 23.0 °F 100% - 2.5 mi NE 4.6 mph - N/A   Overcast
2:55 AM 23.0 °F 18.4 °F 23.0 °F 100% - 10.0 mi NE 3.5 mph - N/A   Overcast
3:15 AM 23.0 °F - 21.2 °F 93% - 10.0 mi Calm Calm - N/A   Overcast
3:35 AM 23.0 °F - 21.2 °F 93% - 10.0 mi Calm Calm - N/A   Mostly Cloudy
3:55 AM 21.2 °F - 21.2 °F 100% - 10.0 mi Calm Calm - N/A   Overcast
4:15 AM 21.2 °F 16.4 °F 21.2 °F 100% - 10.0 mi North 3.5 mph - N/A   Overcast
4:35 AM 23.0 °F 18.4 °F 21.2 °F 93% - 10.0 mi North 3.5 mph - N/A   Overcast
4:55 AM 23.0 °F - 21.2 °F 93% - 10.0 mi Calm Calm - N/A   Overcast
5:15 AM 23.0 °F - 23.0 °F 100% - 10.0 mi Calm Calm - N/A   Overcast
5:35 AM 23.0 °F 15.8 °F 21.2 °F 93% - 0.2 mi NNE 5.8 mph - N/A Fog Light Freezing Fog
5:55 AM 23.0 °F - 21.2 °F 93% - 0.2 mi Calm Calm - N/A Fog Light Freezing Fog
6:15 AM 21.2 °F - 21.2 °F 100% - 0.2 mi Calm Calm - N/A Fog Light Freezing Fog
6:35 AM 21.2 °F - 21.2 °F 100% - 0.2 mi Calm Calm - N/A Fog Light Freezing Fog
6:55 AM 21.2 °F - 21.2 °F 100% - 0.2 mi Calm Calm - N/A Fog Light Freezing Fog
7:15 AM 19.4 °F - 19.4 °F 100% - 0.2 mi Calm Calm - N/A Fog Light Freezing Fog
7:35 AM 19.4 °F 14.3 °F 17.6 °F 93% - 10.0 mi West 3.5 mph - N/A   Unknown
7:55 AM 19.4 °F - 17.6 °F 93% - 0.2 mi Calm Calm - N/A Fog Light Freezing Fog
8:15 AM 19.4 °F 12.8 °F 17.6 °F 93% - 10.0 mi WSW 4.6 mph - N/A   Unknown
8:35 AM 19.4 °F 11.5 °F 19.4 °F 100% - 10.0 mi SW 5.8 mph - N/A   Unknown
8:55 AM 19.4 °F 11.5 °F 19.4 °F 100% - 10.0 mi WSW 5.8 mph - N/A   Unknown
9:15 AM 21.2 °F 14.9 °F 19.4 °F 93% - 0.2 mi SW 4.6 mph - N/A Fog Light Freezing Fog
9:35 AM 23.0 °F 14.7 °F 21.2 °F 93% - 0.2 mi SW 6.9 mph - N/A Fog Light Freezing Fog
9:55 AM 23.0 °F 13.1 °F 23.0 °F 100% - 10.0 mi SW 9.2 mph - N/A   Unknown
10:15 AM 24.8 °F 16.9 °F 23.0 °F 93% 30.14 in 10.0 mi SW 6.9 mph - N/A   Unknown
10:35 AM 24.8 °F 17.9 °F 23.0 °F 93% - 10.0 mi SSW 5.8 mph - N/A   Clear
10:55 AM 26.6 °F 19.1 °F 24.8 °F 93% - 10.0 mi SSW 6.9 mph - N/A   Clear
11:15 AM 26.6 °F 20.0 °F 24.8 °F 93% 30.14 in 10.0 mi SSW 5.8 mph - 0.01 in   Clear
11:35 AM 26.6 °F 19.1 °F 24.8 °F 93% 30.14 in 10.0 mi SSW 6.9 mph - 0.01 in   Scattered Clouds
11:55 AM 26.6 °F 17.5 °F 24.8 °F 93% 30.14 in 10.0 mi SW 9.2 mph - 0.01 in   Scattered Clouds
12:15 PM 28.4 °F 20.4 °F 24.8 °F 86% 30.14 in 10.0 mi SSW 8.1 mph - N/A   Clear
12:35 PM 28.4 °F 23.3 °F 24.8 °F 86% 30.13 in 10.0 mi SSW 4.6 mph - 0.01 in   Clear
12:55 PM 30.2 °F 24.3 °F 26.6 °F 86% 30.12 in 10.0 mi SSW 5.8 mph - 0.01 in   Clear
1:15 PM 32.0 °F 25.6 °F 26.6 °F 80% 30.11 in 10.0 mi SSW 6.9 mph - N/A   Clear
1:35 PM 32.0 °F 25.6 °F 23.0 °F 69% 30.10 in 10.0 mi SSW 6.9 mph - N/A   Clear
1:55 PM 33.8 °F 27.0 °F 23.0 °F 65% 30.09 in 10.0 mi SSW 8.1 mph - N/A   Clear
2:15 PM 33.8 °F 25.8 °F 23.0 °F 65% 30.08 in 10.0 mi SW 10.4 mph - N/A   Clear
2:35 PM 33.8 °F 24.8 °F 19.4 °F 56% 30.08 in 10.0 mi WSW 12.7 mph - N/A   Clear
2:55 PM 35.6 °F 26.6 °F 19.4 °F 52% 30.07 in 10.0 mi WSW 13.8 mph - N/A   Clear
3:15 PM 33.8 °F 24.8 °F 17.6 °F 52% 30.07 in 10.0 mi WSW 12.7 mph - N/A   Clear
3:35 PM 35.6 °F 26.6 °F 21.2 °F 56% 30.06 in 10.0 mi SW 13.8 mph - N/A   Clear
3:55 PM 35.6 °F 26.6 °F 21.2 °F 56% 30.06 in 10.0 mi WSW 13.8 mph - N/A   Clear
4:15 PM 35.6 °F 26.6 °F 21.2 °F 56% 30.07 in 10.0 mi WSW 13.8 mph 19.6 mph N/A   Clear
4:35 PM 35.6 °F 27.5 °F 19.4 °F 52% 30.07 in 10.0 mi West 11.5 mph 18.4 mph N/A   Clear
4:55 PM 35.6 °F 27.1 °F 17.6 °F 48% 30.07 in 10.0 mi West 12.7 mph - N/A   Clear
5:15 PM 35.6 °F 26.6 °F 15.8 °F 44% 30.07 in 10.0 mi WSW 13.8 mph 20.7 mph N/A   Clear
5:35 PM 35.6 °F 28.6 °F 15.8 °F 44% 30.08 in 10.0 mi WSW 9.2 mph 17.3 mph N/A   Clear
5:55 PM 32.0 °F 26.4 °F 26.6 °F 80% 30.08 in 10.0 mi North 5.8 mph - N/A   Clear
6:15 PM 32.0 °F - 26.6 °F 80% 30.09 in 10.0 mi Calm Calm - N/A   Clear
6:35 PM 32.0 °F 28.7 °F 24.8 °F 75% 30.09 in 10.0 mi NNE 3.5 mph - N/A   Clear
6:55 PM 32.0 °F - 24.8 °F 75% 30.09 in 10.0 mi Calm Calm - N/A   Clear
7:15 PM 33.8 °F - 21.2 °F 60% 30.09 in 10.0 mi Calm Calm - N/A   Clear
7:35 PM 32.0 °F 28.7 °F 19.4 °F 60% 30.09 in 10.0 mi West 3.5 mph - N/A   Clear
7:55 PM 32.0 °F 26.4 °F 17.6 °F 55% 30.09 in 10.0 mi West 5.8 mph - N/A   Clear
8:15 PM 32.0 °F 27.5 °F 17.6 °F 55% 30.09 in 10.0 mi West 4.6 mph - N/A   Clear
8:35 PM 32.0 °F 26.4 °F 17.6 °F 55% 30.09 in 10.0 mi West 5.8 mph - N/A   Clear
8:55 PM 32.0 °F 27.5 °F 17.6 °F 55% 30.10 in 10.0 mi West 4.6 mph - N/A   Clear
9:15 PM 33.8 °F - 15.8 °F 48% 30.10 in 10.0 mi Calm Calm - N/A   Clear
9:35 PM 35.6 °F - 14.0 °F 41% 30.10 in 10.0 mi Calm Calm - N/A   Clear
9:55 PM 35.6 °F - 14.0 °F 41% 30.10 in 10.0 mi Calm Calm - N/A   Clear
10:15 PM 35.6 °F 32.8 °F 14.0 °F 41% 30.10 in 10.0 mi North 3.5 mph - N/A   Clear
10:35 PM 35.6 °F - 14.0 °F 41% 30.10 in 10.0 mi Calm Calm - N/A   Clear
10:55 PM 33.8 °F - 14.0 °F 44% 30.10 in 10.0 mi Calm Calm - N/A   Clear
11:15 PM 33.8 °F - 14.0 °F 44% 30.10 in 10.0 mi Calm Calm - N/A   Clear
11:35 PM 33.8 °F - 14.0 °F 44% 30.10 in 10.0 mi Calm Calm - N/A   Clear
11:55 PM 33.8 °F - 15.8 °F 48% 30.10 in 10.0 mi Calm Calm - N/A   Clear